OPS 9433 (DSCS 2-3)

导读 | 豆包AI

OPS 9433(又称DSCS 2-3)是美国第二代国防卫星通信系统(DSCS II)系列卫星,于1973年12月13日发射升空,属于美军军用通信卫星。该系列是美国第一代国防卫星通信系统的升级项目,旨在拓展军事通信服务范围,为美国国防部及全球驻军提供安全、高速的战略与战术通信支撑,是美军早期组网运行的同步轨道军事通信卫星,也是美国空军运转时间最长的卫星通信体系的重要组成部分。

基本信息
目录编号:
6973
目录名称:
OPS 9433 (DSCS 2-3)
国际标识:
1973-100A
轨道中心:
EARTH
卫星名称:
OPS 9433 (DSCS 2-3)
卫星全名:
--
卫星状态:
在轨 (已飞行19116 天)
发射日期:
1973-12-13 UTC
国别 :
美国 (US)
星等 :
--
轨道信息
数据来源 国际轨道数据 AOE轨道数据
星历时间 2026-04-15T13:29:23+0800
14小时前
查看轨道信息
2026-04-15T03:00:00+0800
1天前
查看轨道信息
半长轴 42914.03km 42913.913km
偏心率 0.0028936 0.0028875
轨道倾角 5.253° 5.253°
近地点辐角 234.406° 234.635°
升交点赤经 276.613° 276.615°
平近点角 136.655° 342.765°
近地点 36411.716km 36411.862km
远地点 36660.07km 36659.69km
周期 1474.547分钟 1474.541分钟
每日圈数 0.976571 0.976575
详细信息
使用方式:
暂无
2D轨道图
3D轨道图
轨道高度分析图
轨道倾角分析图
轨道综合分析图
查看轨道综合分析图